User: anonymous   Login
Location: Proctor
(47.8934°N, 114.3048°W)
Time: 09:41:59
(UTC+00:00)
Language:

STARS - Orbit

View from above orbital plane
View from above orbital plane
View from above satellite
View from above satellite

Ground track
Ground track

The orbit data is extracted from the following two-line orbital elements,

1 33498U 09002G   22177.91822082  .00000945  00000-0  13210-3 0  9997
2 33498  98.1685  70.0807 0009674 215.6630 144.3936 14.80015075722830
Epoch (UTC): 26 June 2022 22:02:14
Eccentricity: 0.0009674
inclination: 98.1685°
perigee height: 622 km
apogee height: 636 km
right ascension of ascending node: 70.0807°
argument of perigee: 215.6630°
revolutions per day: 14.80015075
mean anomaly at epoch: 144.3936°
orbit number at epoch: 72283

The dashed part of the orbit path shows where the satellite is in the earth's shadow,  

DLR